SCP
0 0 0 0 0 0 0 0 0 0 0 0 0 0 0 0 0 0 0 0 0 0
0 0 0 0 0 0 0 0 0 0 0 0 0 0 0 0 0 0 0 0 0 0
0 0 0 0 0 0 0 0 0 0 0 0 0 0 0 0 0 0 0 0 0 0
0 0 0 0 0 0 0 0 0 0 0 0 0 0 0 0 0 0 0 0 0 0
0 0 0 0 0 0 0 0 0 0 0 0 0 0 0 0 0 0 0 0 0 0
0 0 0 0 0 0 0 0 0 0 0 0 0 0 0 0 0 0 0 0 0 0
0 0 0 0 0 0 0 0 0 0 0 0 0 0 0 0 0 0 0 0 0 0
0 0 0 0 0 0 0 0 0 0 0 0 0 0 0 0 0 0 0 0 0 0
0 0 0 0 0 0 0 0 0 0 0 0 0 0 0 0 0 0 0 0 0 0
0 0 0 0 0 0 0 0 0 0 0 0 0 0 0 0 0 0 0 0 0 0
0 0 0 0 0 0 0 0 0 0 0 0 0 0 0 0 0 0 0 0 0 0
0 0 0 0 0 0 0 0 0 0 0 0 0 0 0 0 0 0 0 0 0 0
0 0 0 0 0 0 0 0 0 0 0 0 0 0 0 0 0 0 0 0 0 0
0 0 0 0 0 0 0 0 0 0 0 0 0 0 0 0 0 0 0 0 0 0
Wind_Speed_500mb
30 30 28 26 25 24 25 25 25 25 26 26 26 24 23 22 19 18 18 18 18 19
36 35 32 31 27 24 25 25 24 25 25 25 25 24 22 21 19 18 17 16 17 18
41 40 37 36 30 27 27 26 25 25 24 23 23 21 20 19 17 16 16 15 16 17
46 46 44 41 35 32 30 29 28 27 26 24 22 19 16 14 14 13 13 14 15 16
48 51 51 47 41 36 34 32 30 29 28 26 25 20 17 14 12 12 13 14 14 15
49 53 54 50 46 42 38 34 32 30 28 26 28 23 20 17 16 16 14 15 16 16
49 49 50 51 51 49 43 39 35 32 30 27 29 24 23 22 20 18 18 17 18 18
48 47 47 49 54 53 50 45 41 36 33 29 30 25 22 23 24 24 21 20 18 19
48 47 49 50 53 57 55 52 47 43 36 33 32 29 23 24 25 23 23 24 20 16
50 50 52 52 54 57 58 57 53 46 37 40 34 33 24 24 23 22 21 20 23 17
53 52 53 56 59 58 57 58 55 47 39 41 37 35 30 24 23 21 22 19 19 20
53 51 53 57 61 61 58 59 58 52 44 41 40 36 35 26 24 22 21 21 20 24
52 51 53 54 58 60 61 60 60 59 52 49 38 39 39 31 26 24 23 24 22 24
46 49 51 54 55 56 57 60 62 61 51 43 38 40 39 33 29 26 28 26 26 28
Wind_Direction_500mb
286 289 296 303 309 316 322 324 327 329 329 328 327 328 322 319 318 314 308 312 317 324
279 284 289 292 296 308 313 315 317 321 324 325 324 325 323 319 317 313 318 316 315 321
275 277 280 282 288 297 300 305 308 313 317 319 321 324 324 318 319 316 312 316 315 322
273 273 273 275 279 285 290 297 303 310 314 315 314 316 317 316 319 319 321 319 319 329
274 270 267 268 270 274 279 287 296 303 308 310 308 310 311 306 305 312 319 319 325 329
284 275 269 264 264 267 271 278 285 293 298 301 300 304 305 302 295 293 298 305 313 320
295 290 281 271 265 264 265 268 273 279 284 286 290 296 298 294 288 282 284 290 302 312
298 293 285 274 266 264 264 266 268 268 272 275 279 284 282 284 285 286 283 283 289 300
292 288 285 281 274 266 264 262 260 262 266 269 270 275 274 272 276 274 281 284 282 280
290 286 285 283 278 270 264 262 261 262 265 268 264 269 269 273 273 270 271 276 286 283
292 287 287 283 279 274 266 261 258 257 260 263 265 268 272 270 268 265 270 274 284 294
297 290 287 282 280 277 270 263 255 250 246 255 262 262 266 262 266 267 266 273 287 292
294 291 289 288 283 280 273 266 255 246 238 247 251 259 255 255 257 260 262 265 276 280
298 295 294 293 286 280 272 267 256 248 247 245 245 252 252 252 257 258 258 265 269 276
Wind_Speed_850mb
30 30 28 26 25 24 25 25 25 25 26 26 26 24 23 22 19 18 18 18 18 19
36 35 32 31 27 24 25 25 24 25 25 25 25 24 22 21 19 18 17 16 17 18
41 40 37 36 30 27 27 26 25 25 24 23 23 21 20 19 17 16 16 15 16 17
46 46 44 41 35 32 30 29 28 27 26 24 22 19 16 14 14 13 13 14 15 16
48 51 51 47 41 36 34 32 30 29 28 26 25 20 17 14 12 12 13 14 14 15
49 53 54 50 46 42 38 34 32 30 28 26 28 23 20 17 16 16 14 15 16 16
49 49 50 51 51 49 43 39 35 32 30 27 29 24 23 22 20 18 18 17 18 18
48 47 47 49 54 53 50 45 41 36 33 29 30 25 22 23 24 24 21 20 18 19
48 47 49 50 53 57 55 52 47 43 36 33 32 29 23 24 25 23 23 24 20 16
50 50 52 52 54 57 58 57 53 46 37 40 34 33 24 24 23 22 21 20 23 17
53 52 53 56 59 58 57 58 55 47 39 41 37 35 30 24 23 21 22 19 19 20
53 51 53 57 61 61 58 59 58 52 44 41 40 36 35 26 24 22 21 21 20 24
52 51 53 54 58 60 61 60 60 59 52 49 38 39 39 31 26 24 23 24 22 24
46 49 51 54 55 56 57 60 62 61 51 43 38 40 39 33 29 26 28 26 26 28
Wind_Direction_850mb
286 289 296 303 309 316 322 324 327 329 329 328 327 328 322 319 318 314 308 312 317 324
279 284 289 292 296 308 313 315 317 321 324 325 324 325 323 319 317 313 318 316 315 321
275 277 280 282 288 297 300 305 308 313 317 319 321 324 324 318 319 316 312 316 315 322
273 273 273 275 279 285 290 297 303 310 314 315 314 316 317 316 319 319 321 319 319 329
274 270 267 268 270 274 279 287 296 303 308 310 308 310 311 306 305 312 319 319 325 329
284 275 269 264 264 267 271 278 285 293 298 301 300 304 305 302 295 293 298 305 313 320
295 290 281 271 265 264 265 268 273 279 284 286 290 296 298 294 288 282 284 290 302 312
298 293 285 274 266 264 264 266 268 268 272 275 279 284 282 284 285 286 283 283 289 300
292 288 285 281 274 266 264 262 260 262 266 269 270 275 274 272 276 274 281 284 282 280
290 286 285 283 278 270 264 262 261 262 265 268 264 269 269 273 273 270 271 276 286 283
292 287 287 283 279 274 266 261 258 257 260 263 265 268 272 270 268 265 270 274 284 294
297 290 287 282 280 277 270 263 255 250 246 255 262 262 266 262 266 267 266 273 287 292
294 291 289 288 283 280 273 266 255 246 238 247 251 259 255 255 257 260 262 265 276 280
298 295 294 293 286 280 272 267 256 248 247 245 245 252 252 252 257 258 258 265 269 276